Location: Newark
(13.4667°N, 16.6000°W)
Time: 20:38:12
(UTC+00:00)

Envisat - Visible Passes

Search period start: 15 September 2019 00:00
Search period end: 25 September 2019 00:00
Orbit: 764 x 766 km, 98.1° (Epoch: 15 September)

Date Brightness Start Highest point End Pass type
(mag) Time Alt. Az. Time Alt. Az. Time Alt. Az.
15 Sep 5.9 20:43:24 10° SW 20:46:10 15° W 20:48:55 10° WNW visible
16 Sep 4.4 20:04:39 10° S 20:09:23 41° W 20:14:09 10° NNW visible
17 Sep 3.0 19:27:39 10° SSE 19:32:42 71° ENE 19:37:44 10° N visible
18 Sep 5.6 20:31:14 10° SW 20:34:54 20° W 20:38:33 10° NW visible
19 Sep 3.7 19:53:11 10° S 19:58:09 56° W 20:03:06 10° NNW visible
21 Sep 5.1 20:19:24 10° SSW 20:23:38 27° W 20:27:53 10° NW visible
22 Sep 3.2 19:41:51 10° S 19:46:54 76° WSW 19:51:58 10° NNW visible
23 Sep 6.0 20:46:54 10° SW 20:49:09 13° W 20:51:25 10° WNW visible
24 Sep 4.6 20:07:45 10° SSW 20:12:22 36° W 20:17:01 10° NW visible
